[[{"header":{"parameterUnit":"m.s-1","parameterCategory":1,"la1":30.2991,"la2":30.254,"lo1":-89.0895,"lo2":-89.0444,"dy":0.0017,"dx":0.0017,"nx":28,"ny":28,"refTime":"2026-01-07T09:00:00:Z","depth":0,"parameterNumber":2,"parameterNumberName":"U-component_of_WINDS"},"data":[0,0,0,0,0,0,0,0,0,0,0,0,0,0,0,0,0,0,0,0,0,0,0,0,0,0,0,0,0,0,0,0,0,0,0,0,0,0,0,0,0,0,0,0,0,0,0,0,0,0,0,0,0,0,0,0,0,0,-0.2157,-0.2156,0,-0.2047,-0.2046,-0.2044,-0.2034,-0.2035,-0.2036,-0.2037,-0.1919,-0.1915,-0.1911,0,0,0,0,0,0,0,0,0,0,0,0,0,-0.2356,-0.2352,-0.2157,-0.2156,-0.2155,-0.2047,-0.2045,-0.2044,-0.2034,-0.2035,-0.2036,-0.2038,-0.1921,-0.1916,-0.1911,0,0,0,0,0,0,0,0,0,0,0,0,0,-0.226,-0.2351,-0.2158,-0.2137,-0.2134,-0.2047,-0.2045,-0.2044,-0.2033,-0.2035,-0.2037,-0.2038,-0.1922,-0.1916,-0.191,-0.1836,0,0,-0.1891,-0.1888,0,0,0,0,0,0,0,0,-0.2265,-0.2252,-0.2141,-0.2138,-0.2134,-0.2056,-0.2072,-0.1974,-0.2033,-0.2071,-0.2037,-0.2039,-0.1963,-0.1953,-0.1929,-0.183,-0.1825,-0.189,-0.1886,-0.1883,-0.1882,0,0,0,0,0,0,0,-0.2272,-0.2257,-0.2114,-0.214,-0.2135,-0.2131,-0.212,-0.2053,-0.2008,-0.2068,-0.2067,-0.2054,-0.1962,-0.1935,-0.1926,-0.1823,-0.189,-0.1885,-0.1881,-0.1878,-0.1657,-0.1655,0,0,0,0,0,0,-0.2283,-0.2263,-0.2117,-0.211,-0.2206,-0.2126,-0.2113,-0.2079,-0.2009,-0.2,-0.2053,-0.2054,-0.1945,-0.1933,-0.1922,-0.1828,-0.1883,-0.1877,-0.1874,-0.1659,-0.1656,-0.1654,0,0,0,0,0,0,-0.2287,-0.227,-0.2122,-0.2186,-0.2167,-0.2121,-0.2083,-0.2076,-0.2049,-0.1998,-0.1989,-0.2034,-0.1946,-0.1931,-0.1857,-0.1824,-0.1875,-0.1869,-0.1661,-0.1658,-0.1655,-0.1642,0,0,0,0,0,0,-0.2293,-0.2272,-0.2244,-0.2186,-0.2164,-0.206,-0.2081,-0.2073,-0.2039,-0.204,-0.1978,-0.1969,-0.1946,-0.1867,-0.1851,-0.1816,-0.1864,-0.1664,-0.166,-0.1656,-0.1645,-0.1639,-0.1634,0,0,0,0,0,-0.23,-0.2244,-0.2243,-0.2225,-0.2128,-0.2058,-0.2045,-0.2021,-0.2037,-0.2007,-0.1974,-0.1971,-0.1831,-0.1859,-0.1841,-0.1804,-0.1666,-0.1661,-0.1656,-0.1648,-0.164,-0.1634,0,0,0,0,0,0,-0.2298,-0.2236,-0.2234,-0.2157,-0.2113,-0.2056,-0.2019,-0.2014,-0.1963,-0.1965,-0.1936,-0.1922,-0.1849,-0.182,-0.1852,-0.1728,-0.175,-0.1741,-0.175,-0.1742,-0.1736,-0.1744,-0.1859,0,0,0,0,0,-0.2289,-0.2239,-0.2187,-0.2124,-0.2103,-0.2065,-0.2033,-0.2019,-0.1971,-0.1952,-0.1913,-0.1866,-0.1811,-0.1775,-0.1722,-0.1642,-0.1627,-0.1608,-0.1602,-0.1598,-0.159,-0.1544,-0.1534,-0.1639,-0.1639,-0.1639,0,0,-0.2269,-0.2229,-0.2198,-0.2123,-0.2087,-0.2034,-0.2049,-0.1992,-0.1952,-0.1943,-0.187,-0.1841,-0.1786,-0.1709,-0.1673,-0.1682,-0.1558,-0.1592,-0.1589,-0.1583,-0.1538,-0.1528,-0.1519,-0.1635,-0.1636,-0.1636,0,0,-0.2205,-0.2171,-0.2114,-0.2078,-0.2024,-0.1999,-0.1986,-0.193,-0.191,-0.1838,-0.183,-0.1781,-0.1688,-0.1649,-0.1617,-0.1539,-0.1534,-0.1523,-0.1491,-0.1447,-0.1438,-0.1431,-0.1401,-0.1391,-0.1516,-0.1516,-0.1516,0,-0.2186,-0.2107,-0.2085,-0.2029,-0.1995,-0.1986,-0.1928,-0.1894,-0.1824,-0.18,-0.1813,-0.1695,-0.1658,-0.157,-0.1552,-0.1527,-0.1509,-0.1528,-0.1442,-0.1434,-0.1426,-0.1397,-0.1387,-0.1515,-0.1515,-0.1515,-0.1515,0,-0.2086,-0.2031,-0.1992,-0.1926,-0.1889,-0.1831,-0.18,-0.1764,-0.1753,-0.1727,-0.1652,-0.1608,-0.1545,-0.1524,-0.1512,-0.1434,-0.1441,-0.1448,-0.1469,-0.1416,-0.1388,-0.1377,-0.1513,-0.1513,-0.1514,-0.1514,0,0,-0.2014,-0.1939,-0.1925,-0.1894,-0.1835,-0.1791,-0.1734,-0.1674,-0.1642,-0.1596,-0.1545,-0.1467,-0.1473,-0.1437,-0.1421,-0.1382,-0.1321,-0.1393,-0.1391,-0.1379,-0.123,-0.1223,-0.121,-0.1318,-0.1316,-0.1314,-0.1233,0,-0.1941,-0.1839,-0.1818,-0.1729,-0.1677,-0.1669,-0.1619,-0.1576,-0.155,-0.1501,-0.1473,-0.1417,-0.143,-0.1408,-0.137,-0.1336,-0.129,-0.1342,-0.1268,-0.1266,-0.1279,-0.1196,-0.1189,-0.1115,-0.1223,-0.1221,-0.1219,0,-0.1842,-0.1794,-0.17,-0.1647,-0.1624,-0.158,-0.1522,-0.1477,-0.1428,-0.1412,-0.1372,-0.136,-0.1298,-0.1325,-0.1238,-0.1274,-0.1243,-0.1222,-0.1218,-0.1208,-0.1237,-0.1181,-0.1091,-0.1078,-0.1203,-0.1204,-0.1205,0,-0.1796,-0.1708,-0.164,-0.1615,-0.1552,-0.1521,-0.1493,-0.1446,-0.1411,-0.1361,-0.1338,-0.1281,-0.1249,-0.1205,-0.1178,-0.12,-0.1092,-0.1116,-0.1075,-0.1075,-0.105,-0.1051,-0.095,-0.1035,-0.1035,-0.1035,-0.1035,0,-0.1715,-0.1658,-0.1619,-0.1577,-0.1511,-0.1488,-0.1424,-0.1396,-0.1354,-0.1305,-0.1295,-0.1249,-0.1218,-0.1167,-0.1146,-0.1075,-0.1062,-0.1045,-0.104,-0.1044,-0.1046,-0.1021,-0.1025,-0.1032,-0.1033,-0.1033,-0.1034,0,-0.1652,-0.1624,-0.1549,-0.1497,-0.1482,-0.1436,-0.139,-0.1348,-0.1323,-0.1261,-0.1245,-0.1206,-0.1145,-0.1115,-0.104,-0.1025,-0.0945,-0.0944,-0.0962,-0.0959,-0.0918,-0.0921,-0.0795,-0.0776,-0.0876,-0.0876,-0.0875,0,-0.1601,-0.1556,-0.1499,-0.1466,-0.1438,-0.1386,-0.135,-0.1326,-0.1289,-0.123,-0.1195,-0.1135,-0.1085,-0.0989,-0.0952,-0.0894,-0.089,-0.085,-0.0881,-0.0887,-0.0886,-0.0888,-0.0882,-0.0843,-0.0842,-0.0842,-0.0841,0,-0.1512,-0.15,-0.1451,-0.1396,-0.1355,-0.131,-0.1266,-0.1239,-0.1208,-0.1167,-0.1106,-0.1068,-0.0992,-0.0931,-0.0871,-0.084,-0.0834,-0.0832,-0.0819,-0.0821,-0.0832,-0.0823,-0.0944,-0.0834,-0.0835,-0.0835,-0.0836,-0.0836,-0.1451,-0.141,-0.1364,-0.1308,-0.1273,-0.1233,-0.119,-0.1161,-0.111,-0.1047,-0.1036,-0.097,-0.0922,-0.0841,-0.0809,-0.0756,-0.0765,-0.0746,-0.0741,-0.0736,-0.0733,-0.0844,-0.0746,-0.0746,-0.0746,-0.0746,-0.0746,0,-0.1359,-0.1329,-0.1279,-0.1218,-0.1174,-0.1176,-0.1127,-0.1089,-0.1033,-0.0989,-0.0941,-0.087,-0.0812,-0.0771,-0.0711,-0.0677,-0.0673,-0.0662,-0.0662,-0.0655,-0.073,-0.0746,-0.0666,-0.0666,-0.0666,-0.0666,-0.0666,-0.0666,-0.1306,-0.1237,-0.122,-0.1133,-0.1104,-0.104,-0.1012,-0.0974,-0.0939,-0.0861,-0.0813,-0.0788,-0.0745,-0.0682,-0.0628,-0.0617,-0.0594,-0.0583,-0.0572,-0.0642,-0.065,-0.0658,-0.0673,-0.0579,-0.0579,-0.0501,-0.0501,-0.05]},{"header":{"parameterUnit":"m.s-1","parameterCategory":1,"la1":30.2991,"la2":30.254,"lo1":-89.0895,"lo2":-89.0444,"dy":0.0017,"dx":0.0017,"nx":28,"ny":28,"refTime":"2026-01-07T09:00:00:Z","depth":0,"parameterNumber":3,"parameterNumberName":"V-component_of_WINDS"},"data":[0,0,0,0,0,0,0,0,0,0,0,0,0,0,0,0,0,0,0,0,0,0,0,0,0,0,0,0,0,0,0,0,0,0,0,0,0,0,0,0,0,0,0,0,0,0,0,0,0,0,0,0,0,0,0,0,0,0,2.7069,2.7069,0,2.7078,2.7078,2.7079,2.7038,2.7037,2.7036,2.7035,2.7044,2.7045,2.7046,0,0,0,0,0,0,0,0,0,0,0,0,0,2.7015,2.7016,2.7069,2.7069,2.7069,2.7078,2.7078,2.7079,2.7039,2.7037,2.7036,2.7034,2.7043,2.7045,2.7047,0,0,0,0,0,0,0,0,0,0,0,0,0,2.7033,2.7016,2.7069,2.705,2.7049,2.7078,2.7078,2.7079,2.7039,2.7037,2.7035,2.7034,2.7043,2.7045,2.7047,2.7094,0,0,2.7053,2.7054,0,0,0,0,0,0,0,0,2.7032,2.7035,2.7053,2.7052,2.705,2.7055,2.7063,2.7084,2.7039,2.7043,2.7035,2.7033,2.7049,2.705,2.7056,2.7095,2.7095,2.7053,2.7054,2.7055,2.7056,0,0,0,0,0,0,0,2.7031,2.7034,2.7073,2.7053,2.7051,2.7041,2.7042,2.7066,2.7056,2.7042,2.7039,2.7041,2.7048,2.7054,2.7056,2.7095,2.7053,2.7055,2.7056,2.7057,2.7173,2.7175,0,0,0,0,0,0,2.7032,2.7033,2.7072,2.7073,2.7036,2.7043,2.7044,2.7055,2.7055,2.7054,2.7043,2.7039,2.7052,2.7054,2.7056,2.7112,2.7055,2.7057,2.7058,2.7172,2.7174,2.7176,0,0,0,0,0,0,2.7031,2.7036,2.7072,2.7052,2.7056,2.7046,2.7059,2.7057,2.7063,2.7055,2.7053,2.7051,2.705,2.7053,2.7085,2.7112,2.7058,2.706,2.7169,2.7172,2.7175,2.7224,0,0,0,0,0,0,2.703,2.7036,2.7054,2.7053,2.7057,2.7101,2.7061,2.7058,2.7066,2.7062,2.7063,2.7061,2.7049,2.7082,2.7087,2.7114,2.7061,2.7167,2.7171,2.7174,2.722,2.7228,2.7235,0,0,0,0,0,2.7028,2.7067,2.7055,2.706,2.708,2.7103,2.7105,2.7091,2.7069,2.7087,2.7082,2.7061,2.7108,2.7086,2.7091,2.7118,2.7165,2.717,2.7174,2.7217,2.7227,2.7235,0,0,0,0,0,0,2.7072,2.7067,2.7053,2.7094,2.7099,2.7096,2.7119,2.7102,2.7113,2.7109,2.709,2.709,2.7126,2.7125,2.7101,2.7164,2.7133,2.7138,2.7164,2.7173,2.7181,2.718,2.7063,0,0,0,0,0,2.7086,2.7105,2.71,2.7136,2.714,2.7129,2.7138,2.7127,2.7131,2.7133,2.713,2.7136,2.7151,2.7162,2.7176,2.7219,2.7219,2.7241,2.7248,2.7255,2.726,2.7283,2.7292,2.719,2.719,2.719,0,0,2.7116,2.7116,2.7129,2.7145,2.7148,2.7168,2.7131,2.7154,2.7168,2.7136,2.7167,2.7165,2.7169,2.7207,2.7224,2.7208,2.7288,2.726,2.7265,2.7267,2.7288,2.7298,2.7306,2.7193,2.7192,2.7192,0,0,2.7181,2.7183,2.7213,2.7217,2.7221,2.7214,2.7221,2.722,2.7218,2.7248,2.7224,2.7241,2.7269,2.7273,2.7278,2.7344,2.7326,2.7349,2.7389,2.7412,2.742,2.7427,2.7451,2.7459,2.7354,2.7354,2.7354,0,2.7218,2.7247,2.7231,2.7255,2.7263,2.7235,2.7265,2.7269,2.7278,2.7284,2.7266,2.73,2.73,2.7339,2.7355,2.736,2.7368,2.7349,2.742,2.7427,2.7433,2.7456,2.7465,2.7357,2.7357,2.7357,2.7356,0,2.7292,2.7313,2.7337,2.7347,2.7357,2.7384,2.7371,2.7384,2.7371,2.7365,2.7396,2.7396,2.7409,2.7417,2.7405,2.7454,2.7444,2.7423,2.7391,2.7446,2.7467,2.7475,2.7361,2.736,2.7359,2.7359,0,0,2.7386,2.7386,2.7395,2.7399,2.7401,2.7417,2.7443,2.7456,2.7467,2.7474,2.7495,2.7518,2.7499,2.7506,2.7493,2.7513,2.7566,2.749,2.749,2.7504,2.762,2.7636,2.7646,2.7553,2.7554,2.7556,2.7619,0,2.745,2.7495,2.748,2.7525,2.7544,2.7517,2.754,2.7544,2.7539,2.7554,2.7548,2.7565,2.7538,2.7542,2.756,2.7555,2.7589,2.755,2.7572,2.7573,2.7573,2.7657,2.7674,2.7734,2.7627,2.7629,2.763,0,2.7531,2.7541,2.7588,2.7587,2.7595,2.7615,2.7626,2.7641,2.7645,2.7639,2.7647,2.763,2.7655,2.7622,2.7656,2.7631,2.7639,2.7637,2.7639,2.7641,2.7605,2.7661,2.7753,2.7762,2.7642,2.7641,2.764,0,2.7595,2.762,2.7652,2.7656,2.7656,2.7671,2.7671,2.7673,2.7682,2.7691,2.7697,2.7709,2.7715,2.7725,2.7712,2.7689,2.7748,2.7714,2.7744,2.7745,2.7759,2.7758,2.7853,2.7763,2.7763,2.7763,2.7762,0,2.7668,2.7698,2.7681,2.77,2.7733,2.7715,2.7748,2.7745,2.7747,2.7765,2.7742,2.776,2.7741,2.7757,2.7747,2.7776,2.7779,2.7776,2.7773,2.7779,2.7779,2.7784,2.778,2.7765,2.7764,2.7764,2.7764,0,2.7746,2.7735,2.7768,2.7765,2.7765,2.7789,2.7786,2.7804,2.7797,2.782,2.7824,2.7814,2.7831,2.7819,2.7836,2.7829,2.7868,2.7859,2.7867,2.7865,2.7896,2.7893,2.7998,2.8011,2.7912,2.7913,2.7914,0,2.7794,2.7816,2.7815,2.7826,2.7828,2.7846,2.7854,2.7838,2.7848,2.7854,2.7871,2.7886,2.7897,2.7926,2.7919,2.7932,2.7924,2.7959,2.7925,2.793,2.7925,2.7924,2.7926,2.7966,2.7968,2.7969,2.7969,0,2.788,2.7873,2.7887,2.79,2.7911,2.7919,2.7926,2.7936,2.7919,2.7932,2.7949,2.7958,2.7975,2.7991,2.8001,2.8001,2.7983,2.798,2.7988,2.7994,2.7998,2.7997,2.7886,2.7978,2.7977,2.7976,2.7976,2.7976,2.7944,2.7963,2.7965,2.7982,2.7985,2.7992,2.8008,2.8003,2.8017,2.8031,2.802,2.804,2.8043,2.8055,2.8057,2.8073,2.8058,2.807,2.8072,2.8076,2.808,2.7995,2.8075,2.8075,2.8074,2.8074,2.8074,0,2.803,2.803,2.8045,2.8055,2.8068,2.8049,2.8055,2.8067,2.8086,2.809,2.8101,2.8121,2.8136,2.813,2.8143,2.8157,2.8149,2.8161,2.816,2.816,2.8092,2.8085,2.8167,2.8167,2.8167,2.8167,2.8167,2.8167,2.8076,2.8106,2.81,2.8132,2.8131,2.8152,2.8157,2.8163,2.8166,2.8189,2.8202,2.8198,2.8198,2.8211,2.8223,2.8221,2.8227,2.8243,2.8238,2.8174,2.8165,2.8156,2.8149,2.8244,2.8244,2.8304,2.8305,2.8305]}]]